Date String (YYYY-MM-DD hh:mm:ss) UTC,Instrument flags,Ambient pressure (hPa),Sample flow (lpm),Bypass flow (lpm),Sample temperature (°C),Ambient temperature (°C),ASC tube jacket temperature (°C),LED temperature (°C),Box temperature (°C),Sample RH (%),Span deviation,Mass concentration (μg/m³),Mass concentration (μg/m³),Mass concentration (μg/m³)
DateTimeUTC,F1_M11,P_M11,Q1_M11,Q2_M11,T1_M11,T2_M11,T3_M11,T4_M11,T5_M11,U1_M11,ZSPAN_M11,X2_M11,X0_M11,X1_M11
2022-12-09 02:00:00,,0827.2,5.02,0.00,21.2,19.7,00.0,30.1,22.9,05.7,0000.0,0000.58,0000.80,0000.48
2022-12-09 02:01:00,,0827.2,4.98,0.00,21.2,19.7,00.0,30.1,22.9,05.8,0000.0,0000.57,0000.79,0000.48
2022-12-09 02:02:00,,0827.2,4.99,0.00,21.3,20.3,00.0,30.0,23.0,05.8,0000.0,0000.59,0000.83,0000.48
2022-12-09 02:03:00,,0827.2,5.00,0.00,21.4,21.3,00.0,30.0,23.3,05.8,0000.0,0000.60,0000.88,0000.48
2022-12-09 02:04:00,,0827.2,5.00,0.00,21.5,22.1,00.0,30.1,23.5,05.9,0000.0,0000.61,0000.93,0000.48
2022-12-09 02:05:00,,0827.2,5.01,0.00,21.5,21.8,00.0,30.1,23.5,06.0,0000.0,0000.59,0000.99,0000.47
2022-12-09 02:06:00,,0827.4,5.00,0.00,21.5,21.3,00.0,30.2,23.4,06.0,0000.0,0000.61,0001.02,0000.47
2022-12-09 02:07:00,,0827.2,4.99,0.00,21.5,21.0,00.0,30.2,23.3,06.2,0000.0,0000.62,0001.06,0000.49
2022-12-09 02:08:00,,0827.3,5.02,0.00,21.5,20.7,00.0,30.2,23.3,06.5,0000.0,0000.64,0001.09,0000.49
2022-12-09 02:09:00,,0827.2,5.00,0.00,21.5,20.6,00.0,30.2,23.2,06.3,0000.0,0000.67,0001.15,0000.50
2022-12-09 02:10:00,,0827.3,4.98,0.00,21.5,20.4,00.0,30.2,23.2,06.4,0000.0,0000.72,0001.26,0000.52
2022-12-09 02:11:00,,0827.3,4.99,0.00,21.5,20.3,00.0,30.2,23.2,06.5,0000.0,0000.75,0001.32,0000.53
2022-12-09 02:12:00,,0827.3,5.02,0.00,21.5,20.3,00.0,30.2,23.2,06.5,0000.0,0000.78,0001.37,0000.55
2022-12-09 02:13:00,,0827.4,5.01,0.00,21.5,20.2,00.0,30.2,23.2,06.5,0000.0,0000.78,0001.33,0000.56
2022-12-09 02:14:00,,0827.4,4.99,0.00,21.5,20.1,00.0,30.2,23.1,06.6,0000.0,0000.79,0001.36,0000.58
2022-12-09 02:15:00,,0827.4,4.99,0.00,21.4,20.1,00.0,30.2,23.1,06.5,0000.0,0000.82,0001.41,0000.58
2022-12-09 02:16:00,,0827.4,4.99,0.00,21.4,20.0,00.0,30.2,23.1,06.6,0000.0,0000.82,0001.32,0000.58
2022-12-09 02:17:00,,0827.4,5.02,0.00,21.4,19.9,00.0,30.3,23.1,06.8,0000.0,0000.80,0001.30,0000.58
2022-12-09 02:18:00,,0827.4,4.99,0.00,21.4,19.7,00.0,30.2,23.0,06.9,0000.0,0000.83,0001.40,0000.57
2022-12-09 02:19:00,,0827.4,4.98,0.00,21.3,19.7,00.0,30.2,23.0,06.9,0000.0,0000.82,0001.38,0000.55
2022-12-09 02:20:00,,0827.5,5.02,0.00,21.3,19.8,00.0,30.2,23.0,07.1,0000.0,0000.79,0001.29,0000.54
2022-12-09 02:21:00,,0827.5,5.01,0.00,21.4,20.8,00.0,30.2,23.2,07.4,0000.0,0000.80,0001.31,0000.55
2022-12-09 02:22:00,,0827.5,5.00,0.00,21.5,21.7,00.0,30.2,23.5,07.5,0000.0,0000.80,0001.30,0000.56
2022-12-09 02:23:00,,0827.5,4.99,0.00,21.6,21.5,00.0,30.2,23.5,07.6,0000.0,0000.84,0001.38,0000.56
2022-12-09 02:24:00,,0827.5,4.99,0.00,21.5,21.0,00.0,30.3,23.3,07.8,0000.0,0000.89,0001.50,0000.57
2022-12-09 02:25:00,,0827.5,4.99,0.00,21.5,20.7,00.0,30.3,23.3,07.8,0000.0,0000.89,0001.46,0000.59
2022-12-09 02:26:00,,0827.5,5.00,0.00,21.5,20.5,00.0,30.3,23.2,07.8,0000.0,0000.88,0001.38,0000.61
2022-12-09 02:27:00,,0827.4,5.02,0.00,21.5,20.3,00.0,30.3,23.2,07.8,0000.0,0000.89,0001.38,0000.63
2022-12-09 02:28:00,,0827.4,5.01,0.00,21.4,20.2,00.0,30.3,23.1,07.8,0000.0,0000.91,0001.40,0000.65
2022-12-09 02:29:00,,0827.4,4.98,0.00,21.4,20.0,00.0,30.3,23.1,08.0,0000.0,0000.92,0001.39,0000.68
2022-12-09 02:30:00,,0827.4,4.99,0.00,21.4,19.9,00.0,30.3,23.1,08.0,0000.0,0000.94,0001.39,0000.73
2022-12-09 02:31:00,,0827.4,5.00,0.00,21.4,19.9,00.0,30.3,23.0,08.1,0000.0,0001.01,0001.48,0000.77
2022-12-09 02:32:00,,0827.4,5.02,0.00,21.3,19.8,00.0,30.2,23.0,08.0,0000.0,0001.00,0001.42,0000.80
2022-12-09 02:33:00,,0827.4,5.00,0.00,21.3,19.8,00.0,30.2,23.0,07.9,0000.0,0001.02,0001.50,0000.81
2022-12-09 02:34:00,,0827.4,4.99,0.00,21.3,19.8,00.0,30.2,23.0,07.9,0000.0,0001.03,0001.56,0000.83
2022-12-09 02:35:00,,0827.5,4.99,0.00,21.3,19.8,00.0,30.2,23.0,07.9,0000.0,0000.99,0001.44,0000.84
2022-12-09 02:36:00,,0827.5,4.99,0.00,21.3,19.9,00.0,30.2,23.0,07.9,0000.0,0001.00,0001.46,0000.84
2022-12-09 02:37:00,,0827.4,5.01,0.00,21.4,20.8,00.0,30.2,23.2,07.9,0000.0,0001.04,0001.55,0000.84
2022-12-09 02:38:00,,0827.4,5.00,0.00,21.5,21.7,00.0,30.2,23.4,07.8,0000.0,0001.07,0001.67,0000.85
2022-12-09 02:39:00,,0827.4,5.01,0.00,21.6,21.6,00.0,30.2,23.5,07.7,0000.0,0001.09,0002.08,0000.85
2022-12-09 02:40:00,,0827.4,5.00,0.00,21.6,21.2,00.0,30.3,23.4,07.8,0000.0,0001.12,0002.14,0000.85
2022-12-09 02:41:00,,0827.4,4.99,0.00,21.5,20.9,00.0,30.3,23.3,07.6,0000.0,0001.10,0002.12,0000.84
2022-12-09 02:42:00,,0827.4,5.00,0.00,21.5,20.7,00.0,30.3,23.3,07.6,0000.0,0001.06,0002.07,0000.82
2022-12-09 02:43:00,,0827.4,5.01,0.00,21.5,20.6,00.0,30.3,23.3,07.6,0000.0,0001.05,0002.07,0000.81
2022-12-09 02:44:00,,0827.4,5.02,0.00,21.5,20.4,00.0,30.3,23.2,07.6,0000.0,0001.05,0002.01,0000.81
2022-12-09 02:45:00,,0827.4,4.99,0.00,21.5,20.4,00.0,30.3,23.2,07.6,0000.0,0001.04,0001.95,0000.81
2022-12-09 02:46:00,,0827.4,4.99,0.00,21.5,20.3,00.0,30.3,23.2,07.4,0000.0,0001.05,0002.01,0000.81
2022-12-09 02:47:00,,0827.4,4.98,0.00,21.5,20.2,00.0,30.3,23.2,07.3,0000.0,0001.07,0002.10,0000.82
2022-12-09 02:48:00,,0827.4,5.01,0.00,21.5,20.1,00.0,30.3,23.2,06.9,0000.0,0001.06,0002.06,0000.81
2022-12-09 02:49:00,,0827.4,5.01,0.00,21.5,20.0,00.0,30.3,23.1,06.8,0000.0,0001.04,0002.01,0000.79
2022-12-09 02:50:00,,0827.4,5.01,0.00,21.4,19.9,00.0,30.3,23.1,07.2,0000.0,0001.02,0001.59,0000.79
2022-12-09 02:51:00,,0827.5,4.99,0.00,21.4,20.0,00.0,30.2,23.1,07.4,0000.0,0000.98,0001.50,0000.78
2022-12-09 02:52:00,,0827.5,4.99,0.00,21.5,20.9,00.0,30.2,23.3,07.5,0000.0,0001.01,0001.60,0000.79
2022-12-09 02:53:00,,0827.5,5.00,0.00,21.6,21.7,00.0,30.2,23.5,07.6,0000.0,0001.03,0001.63,0000.79
2022-12-09 02:54:00,,0827.4,5.00,0.00,21.6,21.6,00.0,30.3,23.5,07.3,0000.0,0001.03,0001.64,0000.79
2022-12-09 02:55:00,,0827.5,5.00,0.00,21.6,21.2,00.0,30.3,23.4,07.1,0000.0,0001.01,0001.63,0000.78
2022-12-09 02:56:00,,0827.5,5.01,0.00,21.6,20.9,00.0,30.4,23.4,07.1,0000.0,0000.99,0001.59,0000.76
2022-12-09 02:57:00,,0827.4,5.01,0.00,21.6,20.7,00.0,30.4,23.3,06.6,0000.0,0000.98,0001.57,0000.75
2022-12-09 02:58:00,,0827.4,4.99,0.00,21.6,20.5,00.0,30.3,23.3,06.6,0000.0,0000.93,0001.56,0000.72
2022-12-09 02:59:00,,0827.4,4.99,0.00,21.6,20.4,00.0,30.4,23.3,06.4,0000.0,0000.91,0001.60,0000.69
